[[{"header":{"parameterUnit":"m.s-1","parameterCategory":1,"la1":30.2991,"la2":30.254,"lo1":-89.0895,"lo2":-89.0444,"dx":0.0017,"dy":0.0017,"nx":28,"ny":28,"refTime":"2022-12-16T15:00:00:Z","depth":0,"parameterNumber":2,"parameterNumberName":"U-component_of_WINDS"},"data":[0,0,0,0,0,0,0,0,0,0,0,0,0,0,0,0,0,0,0,0,0,0,0,0,0,0,0,0,0,0,0,0,0,0,0,0,0,0,0,0,0,0,0,0,0,0,0,0,0,0,0,0,0,0,0,0,0,0,0.5108,0.5108,0,0.5136,0.5137,0.5137,0.5162,0.5163,0.5163,0.5163,0.5193,0.5193,0.5194,0,0,0,0,0,0,0,0,0,0,0,0,0,0.5076,0.5076,0.5108,0.5108,0.5108,0.5136,0.5137,0.5137,0.5162,0.5163,0.5163,0.5163,0.5192,0.5193,0.5194,0,0,0,0,0,0,0,0,0,0,0,0,0,0.5095,0.5076,0.5108,0.5124,0.5126,0.5136,0.5137,0.5137,0.5162,0.5163,0.5163,0.5164,0.5192,0.5193,0.5194,0.5189,0,0,0.5196,0.5196,0,0,0,0,0,0,0,0,0.5094,0.5097,0.5122,0.5123,0.5125,0.5146,0.5136,0.5155,0.5162,0.5149,0.5163,0.5164,0.5177,0.5179,0.5183,0.5191,0.5192,0.5196,0.5196,0.5197,0.5197,0,0,0,0,0,0,0,0.5093,0.5095,0.5119,0.5122,0.5124,0.5131,0.5134,0.514,0.516,0.515,0.5152,0.5155,0.5178,0.5182,0.5184,0.5193,0.5196,0.5197,0.5197,0.5197,0.52,0.5199,0,0,0,0,0,0,0.5089,0.5094,0.5118,0.512,0.5111,0.5131,0.5135,0.5139,0.516,0.5163,0.5154,0.5156,0.5181,0.5183,0.5185,0.5182,0.5197,0.5198,0.5198,0.52,0.5199,0.5199,0,0,0,0,0,0,0.5088,0.5091,0.5117,0.5108,0.5111,0.5131,0.5136,0.5139,0.5144,0.5163,0.5167,0.5155,0.5181,0.5184,0.5189,0.5184,0.5198,0.5199,0.52,0.52,0.5199,0.5176,0,0,0,0,0,0,0.5087,0.509,0.5089,0.5107,0.5112,0.5119,0.5136,0.514,0.5145,0.5147,0.5165,0.5169,0.5182,0.5187,0.5189,0.5185,0.5199,0.5201,0.52,0.5199,0.5177,0.5174,0.5172,0,0,0,0,0,0.5086,0.508,0.5088,0.5091,0.511,0.5119,0.5122,0.5137,0.5145,0.5143,0.5156,0.5168,0.5184,0.5187,0.519,0.5186,0.5201,0.52,0.52,0.5178,0.5175,0.5172,0,0,0,0,0,0,0.506,0.5083,0.5092,0.5093,0.5104,0.5123,0.5122,0.5133,0.5142,0.5144,0.5163,0.5167,0.5169,0.5178,0.5181,0.5184,0.5194,0.5194,0.5177,0.5174,0.5172,0.5169,0.52,0,0,0,0,0,0.5055,0.506,0.508,0.5079,0.5084,0.5102,0.5106,0.5118,0.513,0.5134,0.5147,0.5159,0.5167,0.5171,0.5179,0.5179,0.5183,0.5177,0.5175,0.5173,0.5172,0.5173,0.5171,0.5196,0.5196,0.5196,0,0,0.5043,0.5056,0.5058,0.5074,0.5084,0.5089,0.5105,0.511,0.5114,0.5135,0.514,0.515,0.5164,0.5166,0.5168,0.5174,0.5166,0.5172,0.517,0.517,0.5172,0.517,0.5168,0.5195,0.5196,0.5196,0,0,0.5025,0.5035,0.5035,0.5045,0.506,0.5073,0.5073,0.5091,0.5099,0.5104,0.512,0.5126,0.5138,0.5148,0.5155,0.5142,0.5153,0.5144,0.5131,0.5132,0.513,0.5128,0.5124,0.5122,0.5143,0.5143,0.5143,0,0.5008,0.5017,0.5034,0.5038,0.5045,0.5065,0.5065,0.5074,0.5091,0.5095,0.5102,0.5119,0.513,0.5135,0.5132,0.5137,0.5138,0.5142,0.5129,0.5128,0.5126,0.5122,0.512,0.5142,0.5142,0.5142,0.5143,0,0.4996,0.5002,0.5,0.5016,0.5023,0.5025,0.5044,0.5048,0.506,0.5071,0.5077,0.5091,0.5103,0.5105,0.5116,0.5112,0.5116,0.5125,0.5137,0.5122,0.5119,0.5117,0.514,0.5141,0.5141,0.5141,0,0,0.496,0.4988,0.4987,0.4995,0.5013,0.5018,0.5022,0.5034,0.5038,0.5049,0.5053,0.5064,0.5074,0.5081,0.5094,0.5095,0.5084,0.5105,0.5105,0.51,0.5081,0.5073,0.5071,0.5092,0.5092,0.5092,0.508,0,0.4945,0.4952,0.4969,0.4972,0.4977,0.4997,0.5001,0.5013,0.5025,0.5032,0.5045,0.5053,0.5065,0.5069,0.5071,0.5085,0.5081,0.5086,0.5096,0.5096,0.5091,0.507,0.5061,0.5049,0.5079,0.5079,0.5079,0,0.4927,0.4938,0.4941,0.496,0.4963,0.4966,0.4979,0.4985,0.5,0.5009,0.5018,0.5032,0.5038,0.5049,0.5057,0.5061,0.5066,0.5074,0.5074,0.5074,0.5086,0.5069,0.5045,0.5043,0.5077,0.5077,0.5077,0,0.4901,0.4916,0.492,0.4926,0.4949,0.4951,0.496,0.4976,0.4982,0.4994,0.4998,0.501,0.5017,0.5026,0.5043,0.5049,0.505,0.5062,0.5057,0.5057,0.5055,0.5055,0.5031,0.506,0.506,0.506,0.506,0,0.4881,0.4882,0.4909,0.4911,0.4913,0.4933,0.4935,0.4947,0.496,0.4966,0.4984,0.4989,0.5011,0.5019,0.5033,0.5038,0.5041,0.5048,0.5051,0.5046,0.5045,0.5049,0.505,0.5059,0.5059,0.5059,0.506,0,0.4851,0.4869,0.4875,0.4897,0.4902,0.4903,0.4922,0.4925,0.4939,0.4945,0.4948,0.4969,0.4979,0.4998,0.5013,0.5022,0.5025,0.5031,0.5019,0.5021,0.5015,0.5016,0.4993,0.4991,0.5021,0.5021,0.502,0,0.4837,0.4839,0.4861,0.4866,0.4875,0.4883,0.489,0.491,0.4917,0.4934,0.4936,0.4947,0.4958,0.4973,0.499,0.5002,0.5008,0.5,0.501,0.5005,0.5008,0.5008,0.5008,0.4997,0.4997,0.4996,0.4996,0,0.481,0.482,0.4829,0.4841,0.4849,0.486,0.4872,0.4875,0.4898,0.4905,0.4916,0.4924,0.494,0.4951,0.4966,0.4977,0.499,0.4993,0.4992,0.4986,0.4979,0.4983,0.5012,0.4993,0.4993,0.4993,0.4994,0.4994,0.4788,0.479,0.4807,0.4817,0.4828,0.4839,0.4843,0.4858,0.4867,0.4882,0.4894,0.4904,0.492,0.4941,0.4951,0.496,0.4966,0.4965,0.4965,0.4964,0.4962,0.4979,0.4962,0.4962,0.4963,0.4963,0.4963,0,0.4762,0.4774,0.4783,0.4799,0.4807,0.482,0.4834,0.484,0.4849,0.4863,0.4873,0.4886,0.4897,0.4916,0.4929,0.4932,0.4939,0.4935,0.4935,0.4937,0.4955,0.4954,0.493,0.493,0.493,0.493,0.493,0.493,0.4749,0.4754,0.4765,0.4776,0.4789,0.4798,0.4805,0.4816,0.4827,0.4841,0.4851,0.4863,0.4879,0.4894,0.4906,0.4911,0.4915,0.4909,0.4916,0.4933,0.4936,0.4938,0.4938,0.491,0.491,0.4897,0.4897,0.4897]},{"header":{"parameterUnit":"m.s-1","parameterCategory":1,"la1":30.2991,"la2":30.254,"lo1":-89.0895,"lo2":-89.0444,"dx":0.0017,"dy":0.0017,"nx":28,"ny":28,"refTime":"2022-12-16T15:00:00:Z","depth":0,"parameterNumber":3,"parameterNumberName":"V-component_of_WINDS"},"data":[0,0,0,0,0,0,0,0,0,0,0,0,0,0,0,0,0,0,0,0,0,0,0,0,0,0,0,0,0,0,0,0,0,0,0,0,0,0,0,0,0,0,0,0,0,0,0,0,0,0,0,0,0,0,0,0,0,0,-5.8084,-5.8085,0,-5.8181,-5.8182,-5.8183,-5.8115,-5.8112,-5.8109,-5.8106,-5.8202,-5.8207,-5.8212,0,0,0,0,0,0,0,0,0,0,0,0,0,-5.7837,-5.7842,-5.8084,-5.8085,-5.8086,-5.8181,-5.8182,-5.8183,-5.8116,-5.8112,-5.8108,-5.8105,-5.82,-5.8206,-5.8213,0,0,0,0,0,0,0,0,0,0,0,0,0,-5.794,-5.7843,-5.8084,-5.8064,-5.8063,-5.818,-5.8182,-5.8184,-5.8116,-5.8112,-5.8107,-5.8103,-5.8198,-5.8206,-5.8214,-5.8354,0,0,-5.8238,-5.8242,0,0,0,0,0,0,0,0,-5.7934,-5.7949,-5.8066,-5.8066,-5.8065,-5.8131,-5.813,-5.8241,-5.8117,-5.8096,-5.8106,-5.8101,-5.8182,-5.8191,-5.8219,-5.8359,-5.8363,-5.8239,-5.8244,-5.8247,-5.825,0,0,0,0,0,0,0,-5.7927,-5.7944,-5.8122,-5.8067,-5.8067,-5.8049,-5.8059,-5.815,-5.8163,-5.8098,-5.8093,-5.8105,-5.8181,-5.8211,-5.8221,-5.8364,-5.8239,-5.8246,-5.8251,-5.8254,-5.8624,-5.8629,0,0,0,0,0,0,-5.7922,-5.7939,-5.8119,-5.8125,-5.7987,-5.8057,-5.8068,-5.8114,-5.8162,-5.8165,-5.8109,-5.8102,-5.82,-5.8211,-5.8224,-5.8392,-5.8247,-5.8255,-5.8259,-5.8619,-5.8625,-5.8631,0,0,0,0,0,0,-5.7917,-5.7939,-5.8115,-5.8031,-5.8052,-5.8066,-5.8119,-5.8119,-5.8149,-5.8171,-5.8172,-5.8139,-5.8197,-5.8212,-5.8323,-5.8394,-5.8258,-5.8266,-5.8613,-5.8621,-5.8628,-5.8729,0,0,0,0,0,0,-5.791,-5.7938,-5.7992,-5.8033,-5.8057,-5.8214,-5.8123,-5.8124,-5.8164,-5.8155,-5.8199,-5.8201,-5.8194,-5.8311,-5.8331,-5.8403,-5.8272,-5.8607,-5.8617,-5.8626,-5.8719,-5.8739,-5.8756,0,0,0,0,0,-5.7902,-5.8016,-5.7995,-5.8017,-5.8125,-5.8218,-5.8232,-5.8222,-5.817,-5.8224,-5.8238,-5.82,-5.8383,-5.8323,-5.8344,-5.842,-5.8602,-5.8614,-5.8625,-5.8711,-5.8735,-5.8755,0,0,0,0,0,0,-5.7982,-5.8021,-5.7998,-5.8129,-5.8171,-5.8206,-5.8275,-5.8248,-5.8304,-5.8294,-5.8278,-5.8289,-5.8404,-5.8423,-5.8355,-5.8558,-5.8484,-5.85,-5.8542,-5.8565,-5.8583,-5.8576,-5.8279,0,0,0,0,0,-5.8015,-5.8088,-5.8118,-5.823,-5.8252,-5.826,-5.83,-5.8289,-5.8332,-5.8349,-5.837,-5.8412,-5.8478,-5.8523,-5.8585,-5.8721,-5.873,-5.8784,-5.8802,-5.8817,-5.8831,-5.8904,-5.8929,-5.8668,-5.8668,-5.8667,0,0,-5.8084,-5.8114,-5.8161,-5.8247,-5.8278,-5.8353,-5.8276,-5.8358,-5.8414,-5.8361,-5.8467,-5.8484,-5.8529,-5.8653,-5.8709,-5.8672,-5.8905,-5.8831,-5.8843,-5.8849,-5.8918,-5.8943,-5.8965,-5.8675,-5.8674,-5.8673,0,0,-5.8247,-5.8278,-5.8375,-5.8408,-5.8457,-5.8461,-5.8485,-5.8525,-5.8535,-5.8641,-5.8603,-5.8668,-5.8783,-5.8817,-5.8849,-5.9026,-5.8993,-5.9047,-5.9142,-5.9214,-5.9234,-5.9253,-5.9316,-5.9339,-5.9061,-5.9061,-5.9061,0,-5.8326,-5.8439,-5.8428,-5.8514,-5.8553,-5.851,-5.8608,-5.864,-5.8706,-5.8733,-5.8692,-5.8836,-5.8863,-5.8994,-5.9038,-5.9065,-5.9091,-5.9042,-5.9233,-5.9251,-5.9267,-5.9328,-5.9351,-5.9067,-5.9067,-5.9066,-5.9065,0,-5.8534,-5.8613,-5.8685,-5.8752,-5.8799,-5.889,-5.8892,-5.894,-5.8925,-5.8934,-5.9042,-5.9074,-5.9142,-5.9172,-5.9158,-5.9302,-5.9278,-5.9235,-5.916,-5.9299,-5.9355,-5.9378,-5.9076,-5.9074,-5.9072,-5.9071,0,0,-5.8751,-5.8811,-5.8837,-5.8867,-5.8918,-5.8978,-5.9067,-5.9135,-5.9177,-5.9224,-5.9298,-5.9397,-5.9358,-5.9395,-5.9383,-5.9446,-5.9585,-5.9396,-5.9396,-5.943,-5.9745,-5.9777,-5.9804,-5.9563,-5.9567,-5.9571,-5.9741,0,-5.8917,-5.9075,-5.9067,-5.9214,-5.9286,-5.9246,-5.9324,-5.9363,-5.9373,-5.9435,-5.9446,-5.9516,-5.9459,-5.9481,-5.9542,-5.9555,-5.9648,-5.9543,-5.9631,-5.9634,-5.9622,-5.9833,-5.9868,-6.0027,-5.9763,-5.9767,-5.9769,0,-5.9133,-5.9189,-5.9343,-5.9384,-5.9414,-5.9484,-5.9546,-5.9606,-5.9649,-5.9652,-5.9694,-5.9672,-5.9761,-5.9684,-5.9806,-5.9735,-5.9771,-5.9783,-5.9789,-5.9797,-5.9711,-5.9847,-6.0078,-6.0102,-5.9804,-5.9801,-5.9799,0,-5.9276,-5.939,-5.9497,-5.9524,-5.9573,-5.9623,-5.9646,-5.9685,-5.9726,-5.978,-5.9806,-5.9869,-5.9903,-5.9952,-5.9948,-5.9892,-6.0072,-5.9994,-6.0076,-6.0077,-6.0116,-6.0114,-6.0356,-6.0139,-6.0139,-6.0138,-6.0138,0,-5.9463,-5.9559,-5.9562,-5.9628,-5.9734,-5.9724,-5.9829,-5.9846,-5.9881,-5.9949,-5.9917,-5.9981,-5.9971,-6.0035,-6.0032,-6.0134,-6.015,-6.0154,-6.0152,-6.0157,-6.0157,-6.018,-6.0169,-6.0144,-6.0143,-6.0142,-6.0141,0,-5.9641,-5.9647,-5.9761,-5.9799,-5.9811,-5.9887,-5.9919,-5.9981,-5.9989,-6.0075,-6.0094,-6.0106,-6.018,-6.0181,-6.0264,-6.0262,-6.0387,-6.0372,-6.0373,-6.037,-6.0452,-6.0445,-6.0718,-6.0753,-6.0513,-6.0516,-6.0517,0,-5.976,-5.9833,-5.9879,-5.9923,-5.995,-6.002,-6.0063,-6.0055,-6.0101,-6.0155,-6.0211,-6.0282,-6.0338,-6.0457,-6.0473,-6.0536,-6.0523,-6.0615,-6.0532,-6.0535,-6.0525,-6.0521,-6.0528,-6.0631,-6.0633,-6.0636,-6.0637,0,-5.9971,-5.997,-6.0033,-6.0099,-6.0151,-6.0201,-6.0247,-6.0284,-6.0282,-6.0334,-6.041,-6.0454,-6.054,-6.0611,-6.0673,-6.0694,-6.0666,-6.0663,-6.0685,-6.0692,-6.0689,-6.0692,-6.0417,-6.0657,-6.0655,-6.0653,-6.0652,-6.0652,-6.0123,-6.0186,-6.0229,-6.0301,-6.0335,-6.0379,-6.044,-6.0456,-6.0519,-6.059,-6.0581,-6.0665,-6.0706,-6.0786,-6.0813,-6.0878,-6.0846,-6.0878,-6.0887,-6.0895,-6.0904,-6.0679,-6.0889,-6.0889,-6.0888,-6.0888,-6.0887,0,-6.0332,-6.0358,-6.0424,-6.0491,-6.0547,-6.0516,-6.0566,-6.0615,-6.069,-6.0731,-6.0788,-6.0875,-6.0943,-6.0964,-6.103,-6.1078,-6.1066,-6.1095,-6.1092,-6.1097,-6.0929,-6.0903,-6.1104,-6.1104,-6.1104,-6.1104,-6.1104,-6.1104,-6.0448,-6.0554,-6.0558,-6.0681,-6.0705,-6.0789,-6.082,-6.086,-6.0893,-6.0992,-6.1049,-6.1063,-6.1096,-6.1164,-6.1225,-6.1229,-6.1255,-6.129,-6.1289,-6.1131,-6.1109,-6.1088,-6.1064,-6.1295,-6.1296,-6.1452,-6.1453,-6.1454]}]]